VK1ET-13 Weather Reports


time (UTC)temp
C
wind
direction
speed
KPH
gust
KPH
rain 1hr
cm
rain 24hr
cm
rain mn
cm
humidity
%
barometer
mb
20260503023537 20 271 1.6 4.8 0.00 0.00 0.00 70 1019.2
20260503022531 19 211 3.2 6.4 0.00 0.00 0.00 71 1019.5
20260503021526 20 247 3.2 6.4 0.00 0.00 0.00 72 1019.8
20260503020542 18 146 3.2 6.4 0.00 0.00 0.00 73 1019.9
20260503015524 19 191 1.6 3.2 0.00 0.00 0.00 73 1020.4
20260503014534 18 260 3.2 8.0 0.00 0.00 0.00 76 1020.5
20260503013522 18 207 3.2 8.0 0.00 0.00 0.00 79 1020.6
20260503012532 17 191 3.2 8.0 0.00 0.00 0.00 80 1020.5
20260503011527 17 165 3.2 6.4 0.00 0.00 0.00 84 1020.8
20260503010531 17 160 4.8 11.3 0.00 0.00 0.00 87 1020.9
20260503005519 16 184 8.0 11.3 0.00 0.00 0.00 89 1021.1
20260503004527 16 200 8.0 11.3 0.00 0.00 0.00 90 1021.2
20260503003523 16 187 8.0 11.3 0.00 0.00 0.00 92 1021.3
20260503002525 16 182 8.0 9.7 0.00 0.00 0.00 91 1021.3
20260503001535 16 189 4.8 8.0 0.00 0.00 0.00 92 1021.4
20260503000524 16 184 6.4 8.0 0.00 0.00 0.00 91 1021.4
20260502235532 16 178 4.8 6.4 0.00 0.00 0.00 90 1021.6
20260502234521 16 169 4.8 9.7 0.00 0.00 0.00 90 1021.6
20260502233530 16 169 3.2 8.0 0.00 0.00 0.00 91 1021.6
20260502232519 15 160 4.8 9.7 0.00 0.00 0.00 94 1021.5
20260502231529 15 161 3.2 6.4 0.00 0.00 0.00 94 1021.6
20260502230517 15 187 4.8 8.0 0.00 0.00 0.00 94 1021.7
20260502225525 15 183 3.2 9.7 0.00 0.00 0.00 94 1021.6
20260502224535 15 186 4.8 8.0 0.00 0.00 0.00 94 1021.6
20260502223523 15 165 6.4 8.0 0.00 0.00 0.00 94 1021.6
20260502222533 14 169 4.8 8.0 0.00 0.00 0.00 95 1021.5
20260502221522 14 190 6.4 11.3 0.00 0.00 0.00 96 1021.6
20260502220530 14 198 4.8 8.0 0.00 0.00 0.00 96 1021.2
20260502215526 14 224 3.2 6.4 0.00 0.00 0.00 95 1021.2
20260502214528 14 183 3.2 4.8 0.00 0.00 0.00 95 1020.9
20260502213517 13 124 1.6 4.8 0.00 0.00 0.00 95 1020.9
20260502212526 13 133 4.8 6.4 0.00 0.00 0.00 95 1020.8
20260502211542 13 163 6.4 9.7 0.00 0.00 0.00 95 1020.9
20260502210523 13 176 1.6 8.0 0.00 0.00 0.00 95 1021.0
20260502205533 13 195 3.2 6.4 0.00 0.00 0.00 96 1020.9
20260502204520 13 178 1.6 4.8 0.00 0.00 0.00 96 1020.5
20260502203529 13 158 3.2 6.4 0.00 0.00 0.00 96 1020.4
20260502202524 13 166 3.2 4.8 0.00 0.00 0.00 96 1020.4
20260502201527 13 160 6.4 8.0 0.00 0.00 0.00 96 1020.5
20260502200543 13 164 6.4 8.0 0.00 0.00 0.00 96 1020.3
20260502195524 13 150 3.2 6.4 0.00 0.00 0.00 96 1020.3
20260502194534 14 204 0.0 3.2 0.00 0.00 0.00 96 1020.1
20260502193522 14 1 1.6 3.2 0.00 0.00 0.00 96 1020.1
20260502192532 14 319 0.0 3.2 0.00 0.00 0.00 95 1020.0
20260502191527 14 34 1.6 4.8 0.00 0.00 0.00 95 1020.0
20260502190530 14 258 0.0 3.2 0.00 0.00 0.00 95 1020.2
20260502185518 14 164 1.6 4.8 0.00 0.00 0.00 95 1020.0
20260502184534 15 206 1.6 3.2 0.00 0.00 0.00 94 1020.0
20260502183536 15 120 0.0 3.2 0.00 0.00 0.00 94 1020.0
20260502182531 15 246 0.0 3.2 0.00 0.00 0.00 93 1019.9
20260502181533 15 351 1.6 4.8 0.00 0.00 0.00 93 1019.8
20260502180522 15 355 3.2 4.8 0.00 0.00 0.00 93 1019.9
20260502163523 16 150 1.6 3.2 0.00 0.00 0.00 89 1020.7
20260502162538 16 181 0.0 3.2 0.00 0.00 0.00 88 1020.6
20260502161520 16 337 1.6 3.2 0.00 0.00 0.00 88 1020.6
20260502160529 16 354 0.0 3.2 0.00 0.00 0.00 87 1020.6
20260502151533 17 185 1.6 3.2 0.00 0.00 0.00 83 1021.2
20260502150529 17 208 3.2 4.8 0.00 0.00 0.00 82 1021.4
20260502130528 18 47 1.6 4.8 0.00 0.00 0.00 78 1022.1
20260502123535 18 194 1.6 3.2 0.00 0.00 0.00 75 1022.4
20260502122521 18 43 3.2 8.0 0.00 0.00 0.00 75 1022.3
20260502121537 18 25 1.6 4.8 0.00 0.00 0.00 75 1022.5
20260502120519 18 247 0.0 3.2 0.00 0.00 0.00 75 1022.4
20260502115529 18 184 0.0 3.2 0.00 0.00 0.00 74 1022.4
20260502114517 18 53 0.0 3.2 0.00 0.00 0.00 75 1022.4
20260502113526 18 235 1.6 4.8 0.00 0.00 0.00 74 1022.4
20260502112534 19 163 1.6 3.2 0.00 0.00 0.00 73 1022.4
20260502111524 19 46 1.6 6.4 0.00 0.00 0.00 73 1022.4
20260502110531 19 54 3.2 9.7 0.00 0.00 0.00 73 1022.1
20260502105527 19 60 1.6 4.8 0.00 0.00 0.00 72 1022.1
20260502104531 19 12 1.6 4.8 0.00 0.00 0.00 71 1022.2
20260502103525 20 69 1.6 9.7 0.00 0.00 0.00 70 1022.1
20260502102527 20 59 1.6 3.2 0.00 0.00 0.00 69 1022.0
20260502100532 20 46 3.2 11.3 0.00 0.00 0.00 69 1021.9
20260502091527 20 29 6.4 17.7 0.00 0.00 0.00 67 1021.5
20260502090517 20 28 3.2 12.9 0.00 0.00 0.00 66 1021.5
20260502071535 21 245 0.0 3.2 0.00 0.00 0.00 68 1020.8
20260502070530 21 348 1.6 4.8 0.00 0.00 0.00 67 1020.7
20260502065532 21 75 1.6 3.2 0.00 0.00 0.00 67 1020.8
20260502064520 21 303 0.0 1.6 0.00 0.00 0.00 67 1020.7
20260502063529 21 105 1.6 3.2 0.00 0.00 0.00 66 1020.6
20260502062519 21 85 1.6 3.2 0.00 0.00 0.00 66 1020.7
20260502061528 21 198 0.0 3.2 0.00 0.00 0.00 65 1020.7
20260502060536 21 208 0.0 1.6 0.00 0.00 0.00 65 1020.8
20260502055524 21 144 1.6 4.8 0.00 0.00 0.00 64 1020.8
20260502054533 21 132 1.6 4.8 0.00 0.00 0.00 63 1020.8
20260502053521 21 85 1.6 4.8 0.00 0.00 0.00 63 1020.8
20260502052530 21 333 0.0 1.6 0.00 0.00 0.00 63 1020.9
20260502051519 21 199 1.6 3.2 0.00 0.00 0.00 63 1021.0
20260502050543 21 215 1.6 3.2 0.00 0.00 0.00 62 1021.1
20260502045518 21 121 1.6 3.2 0.00 0.00 0.00 63 1021.1
20260502044527 21 178 1.6 3.2 0.00 0.00 0.00 63 1021.2
20260502043537 21 215 3.2 6.4 0.00 0.00 0.00 63 1021.3
20260502042525 21 204 1.6 4.8 0.00 0.00 0.00 62 1021.5
20260502041534 21 195 3.2 8.0 0.00 0.00 0.00 64 1021.7
20260502040522 21 196 4.8 8.0 0.00 0.00 0.00 63 1021.7
20260502035531 21 252 3.2 6.4 0.00 0.00 0.00 63 1021.7
20260502034519 21 222 3.2 6.4 0.00 0.00 0.00 63 1021.8
20260502033529 20 230 4.8 8.0 0.00 0.00 0.00 65 1022.0
20260502032517 21 258 3.2 6.4 0.00 0.00 0.00 65 1022.4
20260502031528 21 215 4.8 6.4 0.00 0.00 0.00 65 1022.3
20260502030534 21 213 4.8 9.7 0.00 0.00 0.00 64 1022.5
20260502025529 21 296 3.2 8.0 0.00 0.00 0.00 63 1022.6
20260502024532 21 280 4.8 11.3 0.00 0.00 0.00 63 1022.8